"Pseudo-MPEC" for C1FZZQ5

Created 2026 Sep 5 10:35:04 UT using Find_Orb

Click here for an explanation of pseudo-MPECs

 
 Astrometry: 
     C1FZZQ5*1C2026 09 05.21125221 48 02.110+03 23 26.05   ~9565 21.37GVNEOCPV00
     C1FZZQ5 1C2026 09 05.21684821 48 00.367+03 23 55.00   ~9565       VNEOCPV00
     C1FZZQ5 1C2026 09 05.22243121 47 58.618+03 24 23.62   ~9565 21.82GVNEOCPV00
     C1FZZQ5 1C2026 09 05.22802221 47 56.904+03 24 51.77   ~9565       VNEOCPV00
     C1FZZQ5 1C2026 09 05.33121121 47 24.526+03 33 43.88   ~958K 21.49GVNEOCPV00
     C1FZZQ5 1C2026 09 05.33200521 47 24.281+03 33 47.84   ~958K 21.44GVNEOCPV00
     C1FZZQ5 1C2026 09 05.33280021 47 24.025+03 33 51.88   ~958K 21.67GVNEOCPV00
     C1FZZQ5 1C2026 09 05.33359521 47 23.784+03 33 56.09   ~958K 21.61GVNEOCPV00

Station data:
(V00) Kitt Peak-Bok  (N31.963125 W111.600190)  US/Arizona. Measurers T.
   Beuden, V. F. Carvajal, D. Fay, J. B. Fazekas, D. C. Fuls, A. R. Gibbs, A.
   D. Grauer, H. Gröller, J. K. Hogan, R. A. Kowalski, S. M. Larson, G. J.
   Leonard, D. Rankin, R. L. Seaman, F. C. Shelly, K. W. Wierzchoś. 2.25-m
   reflector + 4x4K mosaic CCD.

Orbital elements:  C1FZZQ5
   Perihelion 2026 Jul 2.786818 +/- 62.6 TT = 18:53:01.0 (JD 2461224.286818)
Epoch 2026 Sep  5.0 TT = JDT 2461288.5   Earth MOID: 0.1175   Ma: 0.0614
M  17.466906894 +/- 40              (J2000 ecliptic)             AutoNEOCP
n   0.272014348 +/- 0.273           Peri.  280.994128 +/- 90
a   2.359073688 +/- 1.58            Node   336.525408 +/- 31
e   0.66343963 +/- 0.279            Incl.   39.146753 +/- 16
P   3.62337                H 23.67  G  0.15   U 11.9  SR
q 0.793970701 +/- 0.221    Q 3.924176675 +/- 21
From 8 observations 2026 Sept. 5 (2.9 hr); mean residual 0".34
Residuals in arcseconds: 
260905 V00  .49-  .44+    260905 V00  .74+  .86-    260905 V00  .11-  .05-    
260905 V00  .16-  .33+    260905 V00  .01+  .08+    260905 V00  .02-  .10+    
260905 V00  .01+  .02-    260905 V00  .03+  .02-    

Ephemerides (geocentric):
Date (UTC) HH   RA             Dec           delta  r     elong  mag " sig PA
---- --------  ------------   ------------  ------ ------ -----  --- --------
2026 09 05 11  21 46 47.777   +03 44 46.97  .23670 1.2331 159.8 21.9 64.5 118
2026 09 05 12  21 46 35.560   +03 48 16.39  .23726 1.2335 159.7 21.9 75.5 115
2026 09 05 13  21 46 23.403   +03 51 44.78  .23782 1.2339 159.6 21.9 86.6 113
2026 09 05 14  21 46 11.305   +03 55 12.15  .23838 1.2344 159.5 21.9 97.7 111
2026 09 05 15  21 45 59.266   +03 58 38.49  .23894 1.2348 159.4 21.9  109 110
2026 09 05 16  21 45 47.286   +04 02 03.83  .23950 1.2352 159.3 21.9  120 109
2026 09 05 17  21 45 35.364   +04 05 28.15  .24006 1.2356 159.2 21.9  131 108
2026 09 05 18  21 45 23.499   +04 08 51.47  .24062 1.2360 159.1 21.9  142 107
2026 09 05 19  21 45 11.692   +04 12 13.79  .24118 1.2364 159.0 21.9  153 106
2026 09 05 20  21 44 59.942   +04 15 35.12  .24174 1.2368 159.0 22.0  164 105
2026 09 05 21  21 44 48.249   +04 18 55.47  .24231 1.2372 158.9 22.0  175 104
2026 09 05 22  21 44 36.613   +04 22 14.83  .24287 1.2376 158.8 22.0  186 102
2026 09 05 23  21 44 25.033   +04 25 33.23  .24344 1.2381 158.7 22.0  198 100
2026 09 06 00  21 44 13.508   +04 28 50.65  .24400 1.2385 158.6 22.0  209  97
2026 09 06 01  21 44 02.039   +04 32 07.12  .24457 1.2389 158.5 22.0  222  93
2026 09 06 02  21 43 50.626   +04 35 22.62  .24513 1.2393 158.4 22.0  235  87
2026 09 06 03  21 43 39.267   +04 38 37.17  .24570 1.2397 158.3 22.0  250  78
2026 09 06 04  21 43 27.963   +04 41 50.78  .24627 1.2401 158.2 22.0  267  67
2026 09 06 05  21 43 16.713   +04 45 03.45  .24684 1.2405 158.1 22.0  289  57
2026 09 06 06  21 43 05.517   +04 48 15.18  .24740 1.2409 158.0 22.0  313  49
2026 09 06 07  21 42 54.375   +04 51 25.99  .24797 1.2414 157.9 22.0  340  44
2026 09 06 08  21 42 43.287   +04 54 35.86  .24854 1.2418 157.8 22.0  369  41
2026 09 06 09  21 42 32.251   +04 57 44.82  .24911 1.2422 157.7 22.1  400  39
2026 09 06 10  21 42 21.268   +05 00 52.87  .24968 1.2426 157.7 22.1  432  37
2026 09 06 11  21 42 10.338   +05 04 00.01  .25025 1.2430 157.6 22.1  466  36
2026 09 06 12  21 41 59.460   +05 07 06.24  .25083 1.2434 157.5 22.1  503  35
2026 09 06 13  21 41 48.633   +05 10 11.58  .25140 1.2438 157.4 22.1  540  34
2026 09 06 14  21 41 37.859   +05 13 16.03  .25197 1.2442 157.3 22.1  580  34
2026 09 06 15  21 41 27.135   +05 16 19.58  .25254 1.2447 157.2 22.1  621  33
2026 09 06 16  21 41 16.463   +05 19 22.26  .25312 1.2451 157.1 22.1  664  33
2026 09 06 17  21 41 05.841   +05 22 24.06  .25369 1.2455 157.0 22.1  709  33
2026 09 06 18  21 40 55.270   +05 25 24.98  .25426 1.2459 156.9 22.1  756  33
2026 09 06 19  21 40 44.750   +05 28 25.04  .25484 1.2463 156.9 22.1  805  32
2026 09 06 20  21 40 34.279   +05 31 24.24  .25542 1.2467 156.8 22.1  855  32
2026 09 06 21  21 40 23.857   +05 34 22.58  .25599 1.2471 156.7 22.1  908  32
2026 09 06 22  21 40 13.485   +05 37 20.06  .25657 1.2475 156.6 22.2  963  32
2026 09 06 23  21 40 03.162   +05 40 16.70  .25714 1.2479 156.5 22.2 1020  32
2026 09 07 00  21 39 52.888   +05 43 12.50  .25772 1.2484 156.4 22.2 1079  32
2026 09 07 01  21 39 42.663   +05 46 07.46  .25830 1.2488 156.3 22.2 1140  32
2026 09 07 02  21 39 32.486   +05 49 01.59  .25888 1.2492 156.3 22.2 1203  32
2026 09 07 03  21 39 22.357   +05 51 54.88  .25946 1.2496 156.2 22.2 1269  32
2026 09 07 04  21 39 12.275   +05 54 47.36  .26004 1.2500 156.1 22.2 1337  32
2026 09 07 05  21 39 02.241   +05 57 39.02  .26062 1.2504 156.0 22.2 1408  32
2026 09 07 06  21 38 52.255   +06 00 29.86  .26120 1.2508 155.9 22.2 1481  32
2026 09 07 07  21 38 42.315   +06 03 19.89  .26178 1.2512 155.8 22.2 1557  32
2026 09 07 08  21 38 32.422   +06 06 09.12  .26236 1.2517 155.8 22.2 1635  32
2026 09 07 09  21 38 22.576   +06 08 57.55  .26294 1.2521 155.7 22.2 1716  32
2026 09 07 10  21 38 12.775   +06 11 45.19  .26352 1.2525 155.6 22.2 1800  32